Regional Weather Roundup
Issued by NWS Upton, NY

Current Version | Previous Version | Graphics & Text | Print | Product List | Glossary Off
Versions: 1 2 3 4 5 6 7 8 9 10 11 12 13 14 15 16 17 18 19 20 21 22 23 24 25 26 27 28 29 30 31 32 33 34 35 36 37 38 39 40 41 42 43 44 45 46 47 48 49 50

774
ASUS41 KOKX 241808
RWROKX

REGIONAL WEATHER ROUNDUP
NATIONAL WEATHER SERVICE NEW YORK NY
100 PM EST FRI NOV 24 2017

NOTE: "FAIR" INDICATES FEW OR NO CLOUDS BELOW 12,000 FEET WITH NO
SIGNIFICANT WEATHER AND/OR OBSTRUCTIONS TO VISIBILITY.

NYZ071-072-176-178-NJZ106-104-241900-
NEW YORK CITY METRO AREA

CITY           SKY/WX    TMP DP  RH WIND       PRES   REMARKS
Central Park   SUNNY     48  20  32 SW5       30.03F
Bronx Bot Gard   N/A     50  23  34 W5        30.03S
Bronx Lehman C   N/A     48 N/A N/A SW5         N/A
LaGuardia APRT SUNNY     49  19  30 SW9       30.01F
Queens College   N/A     48 N/A N/A S6          N/A
Kennedy INTL   SUNNY     47  23  38 SW9       30.03F
Breezy Point     N/A     46 N/A N/A W5          N/A
Brooklyn Coll    N/A     48 N/A N/A S5          N/A
Staten Island    N/A     48 N/A N/A SW7         N/A
Newark/Liberty SUNNY     51  21  30 SW5       30.01F
Teterboro      SUNNY     48  22  35 S3        30.00F
$$

NYZ177-179-078>081-241900-
LONG ISLAND NEW YORK

CITY           SKY/WX    TMP DP  RH WIND       PRES   REMARKS
Jones Beach      N/A     45 N/A N/A W7          N/A
Wantagh          N/A     46 N/A N/A SW7         N/A
Matinecock PT    N/A     46 N/A N/A W6          N/A
Farmingdale    SUNNY     49  25  39 SW7       30.01F
MacArthur/ISP  SUNNY     49  21  33 SW7       30.01F
Shirley        SUNNY     47  25  42 S9        30.02F
Mt Sinai Harb    N/A    N/A N/A N/A NW5         N/A
Westhampton    SUNNY     47  21  35 SW9       30.03F
East Hampton   FAIR      46  30  53 S6        30.01F
Southold         N/A     46 N/A N/A S8          N/A
Montauk          N/A     48  31  51 S7        30.03F
$$

NYZ052-065-067-241900-
HUDSON VALLEY

CITY           SKY/WX    TMP DP  RH WIND       PRES   REMARKS
White Plains   SUNNY     48  21  34 VRB7      29.98F
Larchmont Harb   N/A     45 N/A N/A S5          N/A
Croton On Huds   N/A     46 N/A N/A S5          N/A
Somers           N/A     48 N/A N/A SW5         N/A
Brewster         N/A     46 N/A N/A S6          N/A
Newburgh       SUNNY     46  27  46 W7        29.99F
Montgomery     SUNNY     48  24  39 S9        29.96F
Suffern          N/A     48 N/A N/A S3          N/A
Poughkeepsie   SUNNY     47  23  38 W6        29.97F
Albany         MOSUNNY   46  25  43 S13       29.94F
$$

NJZ001-105-106-008-010-013-015-019>022-104-241900-
NEW JERSEY

CITY           SKY/WX    TMP DP  RH WIND       PRES   REMARKS
Newark/Liberty SUNNY     51  21  30 SW5       30.01F
Teterboro      SUNNY     48  22  35 S3        30.00F
Caldwell       SUNNY     49  21  33 SW5       30.00F
Somerville     SUNNY     50  24  36 VRB5      29.99F
Linden         FAIR      49  20  31 CALM      30.02F
Perth Amboy      N/A     46 N/A N/A SW3         N/A
Sussex         SUNNY     48  24  39 VRB7      29.98F
Andover          N/A     47  23  38 CALM      29.98F
Trenton        SUNNY     50  22  33 SW7       30.01F
Millville      SUNNY     49  29  46 VRB5      30.03F
Atlantic City  SUNNY     51  26  37 VRB6      30.02F
Wrightstown    SUNNY     50  23  35 W7        29.99F
Toms River     SUNNY     51  23  33 VRB5      30.02F
Belmar         SUNNY     49  21  33 VRB3      30.02F
$$

PAZ047>061-062-071-241900-
EASTERN PENNSYLVANIA

CITY           SKY/WX    TMP DP  RH WIND       PRES   REMARKS
Philadelphia   SUNNY     50  26  39 VRB7      30.02F
Allentown      SUNNY     50  22  33 SW9       30.00F
Scranton       SUNNY     47  21  35 W9        29.95F
$$

CTZ002-004>006-009-010-012-RIZ004-006-007-MAZ004-011-015-241900-
SOUTHERN NEW ENGLAND
 IN CT

CITY           SKY/WX    TMP DP  RH WIND       PRES   REMARKS
Bradley INTL   MOSUNNY   49  25  39 SE10      29.97F
Hartford       SUNNY     49  27  42 S7        29.98F
Danbury        SUNNY     49  23  36 SW7       29.99F
Wtrbury/Oxford SUNNY     47  24  40 S8        29.98F
Norwalk Harbor   N/A     43 N/A N/A SW7         N/A
Bridgeport     SUNNY     46  30  53 SW8       30.01F
Meriden        SUNNY     48  24  39 S10       29.99F
New Haven      SUNNY     45  31  58 SW6       30.01F
Chester        FAIR      48  27  43 SW7       29.99F
Groton         SUNNY     48  33  56 S9        30.01F
Wilimantic     SUNNY     49  26  41 SW7       29.99F

 IN RI

CITY           SKY/WX    TMP DP  RH WIND       PRES   REMARKS
Providence     SUNNY     49  26  41 S6        30.00F
Block Island   SUNNY     47  32  56 SW9       30.02F
Westerly       SUNNY     48  33  56 SW7       30.02S
 IN MA

CITY           SKY/WX    TMP DP  RH WIND       PRES   REMARKS
Boston         MOSUNNY   47  27  45 SW10      29.97F
Worcester      SUNNY     43  23  45 SW12      29.94F
Westfield      SUNNY     47  26  44 SE8       29.96F
Provincetown   SUNNY     46  30  53 SW9       29.99F
Nantucket      SUNNY     49  36  61 SW9       30.01F
$$

ANZ330-335-338-340-345-350-353-355-241900-
COASTAL MARINE OBSERVATIONS


STATION/POSITION TIME  SKY/WX   TEMP    WIND        PRES    VSBY  WAVE
                                AIR SEA DIR/SP/G                  HT/PER
                 (UTC)          (F)     (DEG/KT/KT) (MB)    (MI)  (FT/S)
NY HARB ENTRANCE 1650            44 55  260/  2/  6 1016.8          3/10
20 S FIRE ISLAND 1650            45 56  230/  8/ 10 1017.4          3/ 9
GREAT SOUTH BAY  1730            43 46  210/  4/  4   N/A
HUDSON CANYON    1650            48 59  250/  6/  8 1017.2          5/11
KINGS POINT      1736            51 50   CALM  /  1 1017.0
EXECUTION ROCKS  1715            49     200/  4/  6   N/A
WESTERN LI SOUND 1649            45     240/  8/ 10   N/A           0
CENTRAL LI SOUND 1700            44     240/  4/  8   N/A           1
ROBBINS REEF     1736            46     170/  4/  7 1017.1
$$


>>>>>>>>>>>>>>>>>>>>>>>>>>>> KEY <<<<<<<<<<<<<<<<<<<<<<<<<<<
>                                                          <
>     SKY/WX - Sky Condition/Present Weather               <
>     TMP    - Temperature in Fahrenheit                   <
>     DP     - Dew Point in Fahrenheit                     <
>     RH     - Relative Humidity in Percent                <
>     WIND   - Direction (from) and Speed in MPH           <
>     PRES   - Mean Sea Level Pressure (inches of Hg)      <
>     WCI    - Wind Chill Index                            <
>     VSB    - VISIBILITY IN MILES                         <
>     HX     - HEAT INDEX                                  <
>     TC     - TEMPERATURE IN CELSIUS                      <
>     VRB    - VARIABLE WIND DIRECTION                     <
>                                                          <
>>>>>>>>>>>>>>>>>>>>>>>>>>>> KEY <<<<<<<<<<<<<<<<<<<<<<<<<<<




USA.gov is the U.S. government's official web portal to all federal, state and local government web resources and services.